Location: Caltech
(34.1382°N, 118.1253°W)
Time: 03:27:58
(UTC-07:00)

JAS-1B - Visible Passes

Search period start: 05 August 2015 00:00
Search period end: 15 August 2015 00:00
Orbit: 911 x 1744 km, 99.1° (Epoch: 04 August)

Date Brightness Start Highest point End Pass type
(mag) Time Alt. Az. Time Alt. Az. Time Alt. Az.
05 Aug 8.8 00:39:21 10° NNW 00:42:48 22° NW 00:42:48 22° NW visible
05 Aug 8.1 23:06:41 10° NNE 23:09:44 32° NE 23:09:44 32° NE visible
06 Aug 9.1 00:59:17 10° NNW 01:01:59 15° WNW 01:01:59 15° WNW visible
06 Aug 8.0 23:25:35 10° NNE 23:28:55 38° NNE 23:28:55 38° NNE visible
07 Aug 8.0 23:44:38 10° N 23:48:07 38° N 23:48:07 38° N visible
08 Aug 9.0 22:14:21 10° NE 22:15:03 12° ENE 22:15:03 12° ENE visible
09 Aug 8.3 00:03:50 10° N 00:07:18 33° NNW 00:07:18 33° NNW visible
09 Aug 8.7 22:32:31 10° NE 22:34:14 18° NE 22:34:14 18° NE visible
10 Aug 8.6 00:23:13 10° N 00:26:29 26° NW 00:26:29 26° NW visible
10 Aug 8.4 22:51:04 10° NNE 22:53:26 24° NE 22:53:26 24° NE visible
11 Aug 9.0 00:42:52 10° NNW 00:45:41 19° NW 00:45:41 19° NW visible
11 Aug 8.3 23:09:50 10° NNE 23:12:37 30° NNE 23:12:37 30° NNE visible
12 Aug 9.3 01:03:02 10° NW 01:04:52 13° NW 01:04:52 13° NW visible
12 Aug 8.2 23:28:47 10° NNE 23:31:49 34° N 23:31:49 34° N visible
13 Aug 8.3 23:47:53 10° N 23:51:01 33° N 23:51:01 33° N visible
14 Aug 9.0 22:17:07 10° NE 22:17:57 13° NE 22:17:57 13° NE visible
